Showing default

SUPERVIEW NEO-2 03, 62079

Orbit data source: Space-Track

SUPERVIEW NEO-2 03, 62079 is a payload satellite owned by Siwei (CN) in SSO that was launched on Sun, 24 Nov 2024 UTC via a CHANG ZHENG 2C launch vehicle from the Jiuquan Satellite Launch Center, China (JSC). Payloads include a variety of satellites, spacecraft, and rockets equipped with specific instruments for various scientific and technological missions. These include communications satellites like Starlink; space stations such as the ISS; scientific satellites like the Hubble; Earth observation satellites from companies like Planet Labs, Umbra, and HawkEye 360; GPS; miniature CubeSats for education and research; and military/defense satellites.

Loading next visibility...
SUPERVIEW NEO-2 03 details
Identifier
62079, 2024-218B
Orbit
SSO
Last TLE update3 days ago
Origin
Flag of CNSiwei (CN / PRC)
ManufacturerDFH
MissionOperational spacecraft
Bus & MotorSIWEI, Unknown motor
Mass600 kg wet, ~500 kg dry
Launch date (UTC)
2024-11-24 (3 weeks ago)
Launch vehicle
CHANG ZHENG 2C
Launch site
Jiuquan Satellite Launch Center, China (JSC)
Object type
Payload
Rocket body
Debris
Shape & HBRUnknown
Radar Cross SectionLarge (>1 m²)

Expand to show TLE details & history

TLE from 3 days ago
0 SUPERVIEW NEO-2 03
1 62079U 24218B   24346.03112663 -.00000006  00000-0  28849-5 0  9995
2 62079  97.4393 350.3170 0001710  87.4278 272.7153 15.19720801  2435
Epoch: 2024-12-11T00:44Z
Definitive object data (Epoch: 2024-12-11T00:44:49.34Z)
Latitude-0.00001°
Longitude-101.12024°
Altitude509.717 km
Speed7.609 km/s
True Right ascension23h 21m 16s
True Declination0° 00' 00"
Sunlit
Object was in daylight at TLE epoch
Visualization TLE readout
Latitude-46.20514°
Longitude73.92701°
Altitude525.614 km
Speed7.598 km/s
Apparent Right ascension09h 36m 19s
Apparent Declination-44° 58' 26"
Sunlit
Object is in daylight
Visualization observer readout
Local Sidereal Time20:13:14
Azimuth244.873° WSW
Elevation-73.913°
Doppler factor1
Orbital elements
Apogee altitude504.828 km
Perigee altitude502.475 km
Semi-major axis6,881.788 km
Eccentricity0.000171
Inclination97.4393°
RAAN350.317°
Arg. of periapsis87.4278°
True anomaly272.69573°
Mean anomaly272.7153°
Eccentric anomaly272.70551°
Mean motion3.80182 °/min
BSTAR0.0000028849
Orbital period94.69 mins
Loading maneuver chart data...
Loading historical data...
Loading historical data...
Loading historical data...
Loading historical data...
Loading historical data...
Loading historical data...
Loading historical data...
Other satellites on launch #218 in the year 2024 (2024-11-24 UTC)

SUPERVIEW NEO-2 03 Visibility forecast

Observer location: undefined°, undefined

Span
Click to sort rows by Start time (UTC) header in descending order
Start Az.
Max El. time (UTC)
Max El. Az.
Max El.
End time (UTC)
End Az.
6 mins2024-12-13 23:59:27.333Z134.11° SE2024-12-14 00:02:27.333Z74.105° E27.86°2024-12-14 00:05:27.333Z11.062° NNE
6 mins2024-12-14 13:04:27.333Z29.723° NE2024-12-14 13:06:27.333Z72.547° E35.446°2024-12-14 13:10:27.333Z175.416° S
|